N41643 KISM-

Flight info

Callsign N41643
Flight time N/A
Altitude VFR
Route
Aircraft C172/L-DOV/C

Departure

Time 2026-04-22 00:21
Airport Kissimmee Gateway Airport (KISM)

Arrival

Time N/A
Airport -
Time Latitude Longitude Altitude Speed Heading
2026-04-22 00:14 28.29204 -81.44060 90 ft 0 kts 46°
2026-04-22 00:14 28.29205 -81.44059 91 ft 0 kts 38°
2026-04-22 00:14 28.29211 -81.44055 90 ft 6 kts
2026-04-22 00:15 28.29243 -81.44105 91 ft 8 kts 330°
2026-04-22 00:15 28.29287 -81.44099 90 ft 6 kts 53°
2026-04-22 00:15 28.29327 -81.44108 90 ft 6 kts 330°
2026-04-22 00:15 28.29364 -81.44133 90 ft 10 kts 326°
2026-04-22 00:16 28.29437 -81.44184 89 ft 14 kts 326°
2026-04-22 00:16 28.29507 -81.44237 90 ft 9 kts 307°
2026-04-22 00:16 28.29516 -81.44292 94 ft 6 kts 304°
2026-04-22 00:16 28.29520 -81.44296 94 ft 0 kts 324°
2026-04-22 00:19 28.29554 -81.44264 91 ft 17 kts 56°
2026-04-22 00:19 28.29581 -81.44235 91 ft 0 kts 57°
2026-04-22 00:20 28.29596 -81.44207 91 ft 13 kts 59°
2026-04-22 00:20 28.29573 -81.44127 87 ft 13 kts 170°
2026-04-22 00:20 28.29391 -81.44001 89 ft 54 kts 148°
2026-04-22 00:20 28.28978 -81.43830 219 ft 79 kts 179°
2026-04-22 00:21 28.28397 -81.43890 348 ft 90 kts 180°
2026-04-22 00:21 28.27757 -81.43928 584 ft 95 kts 173°
2026-04-22 00:21 28.27074 -81.43978 724 ft 107 kts 191°
2026-04-22 00:21 28.26468 -81.44534 914 ft 114 kts 220°
2026-04-22 00:22 28.25935 -81.45243 1007 ft 126 kts 235°
2026-04-22 00:22 28.25650 -81.45808 1139 ft 121 kts 237°
2026-04-22 00:22 28.25232 -81.46644 1315 ft 122 kts 239°
2026-04-22 00:22 28.24767 -81.47819 1529 ft 121 kts 242°
2026-04-22 00:23 28.24773 -81.48802 1401 ft 132 kts 288°
2026-04-22 00:23 28.24708 -81.49465 1574 ft 125 kts 250°
2026-04-22 00:23 28.24240 -81.50244 1747 ft 119 kts 225°
2026-04-22 00:23 28.23827 -81.51065 1894 ft 127 kts 257°
2026-04-22 00:24 28.23662 -81.52032 2011 ft 127 kts 272°
2026-04-22 00:24 28.23841 -81.52983 2148 ft 124 kts 285°
2026-04-22 00:24 28.23986 -81.53948 2263 ft 127 kts 276°
2026-04-22 00:24 28.24060 -81.54940 2396 ft 126 kts 274°
2026-04-22 00:25 28.24104 -81.55966 2573 ft 128 kts 277°
2026-04-22 00:25 28.24294 -81.56954 2765 ft 129 kts 286°
2026-04-22 00:25 28.24489 -81.57968 2869 ft 133 kts 283°
2026-04-22 00:25 28.24673 -81.59002 2905 ft 135 kts 284°
2026-04-22 00:26 28.24857 -81.60044 2859 ft 136 kts 282°
2026-04-22 00:26 28.25002 -81.61093 2875 ft 131 kts 282°
2026-04-22 00:26 28.25132 -81.62116 2899 ft 131 kts 278°
2026-04-22 00:26 28.25255 -81.63146 2921 ft 133 kts 279°
2026-04-22 00:27 28.25393 -81.64204 2846 ft 135 kts 283°
2026-04-22 00:27 28.25558 -81.65217 2858 ft 128 kts 282°
2026-04-22 00:27 28.25724 -81.66189 2814 ft 122 kts 283°
2026-04-22 00:27 28.25878 -81.67136 2740 ft 120 kts 284°
2026-04-22 00:28 28.26038 -81.68068 2595 ft 122 kts 284°
2026-04-22 00:28 28.26189 -81.68978 2553 ft 115 kts 282°
2026-04-22 00:28 28.26309 -81.69848 2561 ft 110 kts 275°
2026-04-22 00:28 28.26256 -81.70746 2579 ft 119 kts 259°
2026-04-22 00:29 28.26176 -81.71636 2737 ft 111 kts 257°
2026-04-22 00:29 28.26065 -81.72526 2780 ft 118 kts 258°
2026-04-22 00:29 28.25800 -81.73418 2746 ft 121 kts 245°
2026-04-22 00:29 28.25493 -81.74325 2825 ft 125 kts 245°
2026-04-22 00:30 28.25137 -81.75252 2718 ft 132 kts 238°
2026-04-22 00:30 28.24697 -81.76125 2761 ft 125 kts 234°
2026-04-22 00:30 28.24218 -81.76949 2773 ft 125 kts 233°
2026-04-22 00:30 28.23749 -81.77769 2925 ft 122 kts 232°
2026-04-22 00:31 28.23267 -81.78549 2960 ft 124 kts 227°
2026-04-22 00:31 28.22716 -81.79313 2852 ft 131 kts 220°
2026-04-22 00:31 28.22188 -81.80185 2714 ft 132 kts 230°
2026-04-22 00:31 28.21628 -81.80987 2549 ft 127 kts 214°
2026-04-22 00:32 28.20863 -81.81396 2329 ft 115 kts 194°
2026-04-22 00:32 28.20149 -81.81825 2128 ft 115 kts 204°
2026-04-22 00:32 28.19481 -81.82302 2014 ft 113 kts 199°
2026-04-22 00:32 28.18780 -81.82638 1838 ft 109 kts 187°
2026-04-22 00:33 28.18059 -81.82796 1708 ft 107 kts 178°
2026-04-22 00:33 28.17300 -81.82901 1662 ft 110 kts 177°
2026-04-22 00:33 28.16565 -81.82917 1614 ft 102 kts 169°
2026-04-22 00:33 28.15862 -81.82888 1622 ft 97 kts 168°
2026-04-22 00:34 28.15191 -81.82844 1628 ft 99 kts 172°
2026-04-22 00:34 28.14490 -81.83036 1647 ft 106 kts 191°
2026-04-22 00:34 28.13785 -81.83268 1616 ft 108 kts 183°
2026-04-22 00:34 28.13074 -81.83468 1686 ft 100 kts 185°
2026-04-22 00:35 28.12410 -81.83802 1635 ft 112 kts 206°
2026-04-22 00:35 28.11818 -81.84446 1552 ft 122 kts 224°
2026-04-22 00:35 28.11374 -81.85267 1549 ft 120 kts 236°
2026-04-22 00:35 28.10967 -81.86102 1517 ft 121 kts 238°
2026-04-22 00:36 28.10561 -81.86936 1429 ft 119 kts 239°
2026-04-22 00:36 28.10196 -81.87750 1413 ft 115 kts 239°
2026-04-22 00:36 28.09850 -81.88571 1367 ft 114 kts 241°
2026-04-22 00:36 28.09541 -81.89386 1388 ft 112 kts 241°
2026-04-22 00:37 28.09215 -81.90177 1410 ft 107 kts 236°
2026-04-22 00:37 28.08838 -81.90891 1474 ft 106 kts 232°
2026-04-22 00:37 28.08420 -81.91596 1472 ft 111 kts 229°
2026-04-22 00:37 28.08051 -81.92409 1481 ft 121 kts 249°
2026-04-22 00:38 28.07837 -81.93345 1523 ft 125 kts 256°
2026-04-22 00:38 28.07684 -81.94293 1499 ft 126 kts 263°
2026-04-22 00:38 28.07959 -81.95219 1501 ft 127 kts 319°